Winfield, KS

10:54 AM CST on February 24, 2018 (GMT -0600)
Strother

Weather History for KWLD - October, 2012

Change the Weather History Date:

Wednesday, October 10, 2012

  Actual Average Record
Temperature  
Mean Temperature 51 °F -  
Max Temperature 66 °F 70 °F 82 °F (1999)
Min Temperature 36 °F 48 °F 32 °F (2000)
Degree Days  
Heating Degree Days 14    
Growing Degree Days 1 (Base 50)    
Moisture  
Dew Point 32 °F    
Average Humidity 53    
Maximum Humidity 89    
Minimum Humidity 24    
Precipitation  
Precipitation 0.00 in - - ()
Sea Level Pressure  
Sea Level Pressure 30.22 in    
Wind  
Wind Speed 4 mph (East)    
Max Wind Speed 8 mph    
Max Gust Speed -    
Visibility 9 miles    
Events      
Averages and records for this station are not official NWS values.
T = Trace of Precipitation, MM = Missing Value Source: NWS Daily Summary

Daily Weather History Graph

Daily Weather History Graph

Search for Another Location

Airport or City:

Trip Planner

Search our weather history database for the weather conditions in past years. The results will help you decide how hot, cold, wet, or windy it might be!

Date:

Astronomy

Oct. 10, 2012 Rise Set
Actual Time 7:31 AM CDT 6:57 PM CDT
Civil Twilight 7:05 AM CDT 7:23 PM CDT
Nautical Twilight 6:35 AM CDT 7:53 PM CDT
Astronomical Twilight 6:05 AM CDT 8:23 PM CDT
Moon 2:16 AM CDT (10/10) 3:55 PM CDT (10/10)
Length of Visible Light 12h 17m
Length of Day
11h 25m
Waning Crescent, 27% of the Moon is Illuminated
Oct 10
Waning Crescent
Oct 15
New
Oct 21
First Quarter
Oct 29
Full
Nov 6
Last Quarter

Hourly Weather History & Observations

Time (CDT) Temp. Windchill Dew Point Humidity Pressure Visibility Wind Dir Wind Speed Gust Speed Precip Events Conditions
12:54 AM 46.0 °F 42.5 °F 39.9 °F 79% 30.19 in 10.0 mi North 6.9 mph - N/A   Clear
1:54 AM 46.9 °F - 37.0 °F 68% 30.19 in 10.0 mi NNE 8.1 mph - N/A   Clear
2:54 AM 43.0 °F 40.3 °F 36.0 °F 76% 30.20 in 10.0 mi NNE 4.6 mph - N/A   Clear
3:54 AM 39.9 °F 37.8 °F 34.0 °F 79% 30.21 in 10.0 mi NNW 3.5 mph - N/A   Clear
4:54 AM 37.9 °F - 32.0 °F 79% 30.24 in 10.0 mi Calm Calm - N/A   Clear
5:54 AM 39.0 °F - 34.0 °F 82% 30.25 in 10.0 mi Calm Calm - N/A   Clear
6:54 AM 37.0 °F - 33.1 °F 86% 30.27 in 10.0 mi Calm Calm - N/A   Clear
7:54 AM 36.0 °F - 33.1 °F 89% 30.28 in 10.0 mi Calm Calm - N/A   Clear
8:44 AM 41.0 °F - 35.6 °F 81% 30.28 in 6.0 mi Calm Calm - N/A   Haze
8:54 AM 43.0 °F - 36.0 °F 76% 30.30 in 2.5 mi Calm Calm - N/A   Haze
8:58 AM 44.6 °F - 35.6 °F 71% 30.29 in 3.0 mi Calm Calm - N/A   Haze
9:54 AM 54.0 °F - 33.1 °F 45% 30.30 in 9.0 mi Calm Calm - N/A   Clear
10:54 AM 59.0 °F - 28.9 °F 32% 30.31 in 10.0 mi ESE 5.8 mph - N/A   Clear
11:54 AM 62.1 °F - 28.0 °F 28% 30.30 in 10.0 mi Calm Calm - N/A   Clear
12:54 PM 63.0 °F - 28.9 °F 28% 30.28 in 10.0 mi Variable 3.5 mph - N/A   Clear
1:54 PM 66.0 °F - 28.0 °F 24% 30.23 in 10.0 mi Variable 4.6 mph - N/A   Clear
2:54 PM 66.0 °F - 28.0 °F 24% 30.20 in 10.0 mi ESE 8.1 mph - N/A   Clear
3:54 PM 66.9 °F - 28.9 °F 24% 30.18 in 10.0 mi Calm Calm - N/A   Clear
4:54 PM 66.0 °F - 28.9 °F 25% 30.16 in 7.0 mi ESE 4.6 mph - N/A   Clear
5:54 PM 66.0 °F - 30.0 °F 26% 30.14 in 10.0 mi ESE 5.8 mph - N/A   Clear
6:54 PM 63.0 °F - 30.0 °F 29% 30.14 in 10.0 mi SE 8.1 mph - N/A   Clear
7:54 PM 59.0 °F - 32.0 °F 36% 30.15 in 10.0 mi ESE 6.9 mph - N/A   Mostly Cloudy
8:54 PM 55.9 °F - 32.0 °F 40% 30.14 in 10.0 mi ESE 5.8 mph - N/A   Clear
9:54 PM 54.0 °F - 33.1 °F 45% 30.14 in 10.0 mi SE 6.9 mph - N/A   Clear
10:54 PM 53.1 °F - 33.1 °F 47% 30.14 in 10.0 mi SE 6.9 mph - N/A   Clear
11:54 PM 53.1 °F - 35.1 °F 50% 30.14 in 10.0 mi East 4.6 mph - N/A   Overcast